Simultaneous Nadir Overpasses (SNOs) Predictions

Prediction of SNOs between NOAA-19 and TERRA Satellite Orbit:

Table of predicted SNOs for the next 14.0 days since TLE Epoch: 11/7/2020
Index Date (NOAA-19) Time (NOAA-19) Lat,Lon (NOAA-19) SZA (NOAA-19 ) Date (TERRA) Time (TERRA) Lat,Lon (TERRA) SZA (TERRA ) Distance(km) Time Diff (sec)
1 11/07/2020 20:17:20 79.82, -93.66 98.11 11/07/2020 20:17:14 79.85, -93.58 98.14 3.18 6
2 11/10/2020 01:50:39 -79.83, 2.97 81.26 11/10/2020 01:50:59 -79.82, 2.80 81.28 3.42 20
3 11/10/2020 02:41:34 79.81, 170.52 98.76 11/10/2020 02:40:25 79.82, 170.44 98.74 2.19 69
4 11/12/2020 07:23:50 79.86, 99.43 99.35 11/12/2020 07:24:42 79.83, 99.42 99.34 3.42 52
5 11/12/2020 08:14:54 -79.84, -93.06 80.64 11/12/2020 08:14:09 -79.84, -92.91 80.65 3.11 45
6 11/14/2020 12:57:15 -80.00,-165.61 80.12 11/14/2020 12:58:25 -79.88,-163.65 80.02 40.52 70
7 11/14/2020 13:48:04 79.85, 3.60 99.94 11/14/2020 13:47:52 79.84, 3.67 99.93 1.98 12
8 11/16/2020 19:21:23 -79.84, 100.46 79.51 11/16/2020 19:21:36 -79.85, 100.32 79.51 2.91 13
9 11/16/2020 20:12:14 79.73, -91.03 100.54 11/16/2020 20:11:02 79.84, -92.09 100.49 24.02 72
10 11/19/2020 00:54:33 79.86,-163.02 101.02 11/19/2020 00:55:18 79.88,-162.89 101.06 2.85 45
